Location: Unspecified
(0.0000°N, 0.0000°E)
Time: 06:49:46
(UTC+01:00)

BREEZE-M DEB (TANK) - Visible Passes

Search period start: 23 November 2014 00:00
Search period end: 03 December 2014 00:00
Orbit: 318 x 16422 km, 49.4° (Epoch: 21 November)

Date Brightness Start Highest point End Pass type
(mag) Time Alt. Az. Time Alt. Az. Time Alt. Az.
23 Nov 6.9 21:30:21 10° NNW 22:13:15 42° N 22:13:15 42° N visible
24 Nov 7.0 22:31:34 10° NW 22:59:17 37° NNW 22:59:17 37° NNW visible
25 Nov 7.3 23:30:21 10° NW 23:45:20 25° NW 23:45:20 25° NW visible
26 Nov 7.2 16:14:16 10° WNW 19:09:30 25° NNE 19:34:10 12° ENE visible
27 Nov 7.6 00:28:49 10° WNW 00:31:23 12° WNW 00:31:23 12° WNW visible
27 Nov 6.8 18:19:03 10° NW 20:10:07 31° NNE 20:20:12 25° ENE visible
28 Nov 6.4 19:52:52 10° NNW 21:04:18 42° NNE 21:06:15 41° NE visible
29 Nov 6.1 21:01:36 10° NNW 21:52:19 55° N 21:52:19 55° N visible
30 Nov 6.2 22:03:46 10° NW 22:38:24 52° NW 22:38:24 52° NW visible
01 Dec 6.7 23:03:43 10° NW 23:24:28 34° WNW 23:24:28 34° WNW visible
